sat.trackr.live / text

‹ back to catalog

COSMOS 2606

NORAD 67680 · 2026-023G

PAYLOAD ACTIVE UNKNOWN

§ Identity

Operator
Country
CIS
Launch date
2026-02-05
Launch site
PLMSC
Launch vehicle
Mass (kg)
RCS (m²)

External: N2YO · Heavens-Above · Gunter

§ Orbital elements

Epoch: 2026-05-25T04:51:29.584800Z

Period
94.44 min
Inclination
96.6167°
Eccentricity
0.0020963
Mean motion
15.24816068 rev/d
Perigee alt
476.9 km
Apogee alt
505.7 km
Semi-major
6,869.5 km
B*
4.3987e-4
RAAN
211.7204°
Arg perigee
199.2102°
Mean anomaly
160.8350°
Rev number
1,649

§ Raw data

COSMOS 26061 67680U 26023G   26145.20242575  .00010928  00000+0  43987-3 0  99982 67680  96.6167 211.7204 0020963 199.2102 160.8350 15.24816068 16499

JSON: /api/v1/satellites/67680 · /tle

For live sub-satellite position, see the globe view (requires WebGL).

§ Visibility from observer

Set your observer location to see the next 7 days of passes ≥ 10°. The values pass through the URL so the page stays shareable.

No JS? Fill the form by hand. The geolocation button needs JavaScript.